This demonstration page uses our WeatherBlox Daily Observations layout. Learn more.

Left ArrowRight Arrow

39.92423, -83.80882

Hourly Observations for August 17, 2022

Temp ( °F °C ) Dew Point ( °F °C ) Humidity (%) Winds ( mph kmh ) Pressure ( in mb ) Visibility ( mi km ) Precip ( " mm )
12:56 am 00:56 Clear 63 17.2 N/A N/A N 6 9 30.04 1017 10 16 0.00 0.00
1:56 am 01:56 Mostly Clear 62 16.7 N/A N/A ENE 3 6 30.04 1017 10 16 0.00 0.00
2:56 am 02:56 Clear 60 15.6 N/A N/A N 6 9 30.04 1017 10 16 0.00 0.00
3:56 am 03:56 Clear N/A N/A N/A NNE 5 7 30.10 1019 10 16 0.00 0.00
4:56 am 04:56 Clear N/A N/A N/A NNE 6 9 30.10 1019 10 16 0.00 0.00
5:56 am 05:56 Clear N/A N/A N/A N 6 9 30.10 1019 10 16 0.00 0.00
6:56 am 06:56 Sunny 59 15 N/A N/A NNE 6 9 30.05 1018 10 16 0.00 0.00
7:56 am 07:56 Sunny 61 16.1 N/A N/A NNE 6 9 30.07 1018 10 16 0.00 0.00
8:56 am 08:56 Sunny 65 18.3 65 18.3 100 100 NNE 8 13 30.09 1019 10 16 0.00 0.00
9:56 am 09:56 Sunny 69 20.6 64 17.8 84 84 NE 13 20 30.09 1019 10 16 0.00 0.00
10:56 am 10:56 Sunny 72 22.2 63 17.2 73 73 ENE 10 17 30.08 1019 10 16 0.00 0.00
11:56 am 11:56 Sunny 75 23.9 63 17.2 66 66 ENE 7 11 30.08 1019 10 16 0.00 0.00
12:56 pm 12:56 Mostly Sunny 76 24.4 63 17.2 64 64 E 8 13 30.07 1018 10 16 0.00 0.00
1:56 pm 13:56 Sunny 78 25.6 62 16.7 58 58 E 7 11 30.06 1018 10 16 0.00 0.00
2:56 pm 14:56 Mostly Sunny 79 26.1 59 15 50 50 VRB 3 6 30.05 1018 10 16 0.00 0.00
3:56 pm 15:56 Mostly Cloudy 77 25 60 15.6 56 56 ENE 7 11 30.00 1016 10 16 0.00 0.00
4:56 pm 16:56 Mostly Cloudy 78 25.6 59 15 52 52 N 7 11 29.98 1015 10 16 0.00 0.00
5:56 pm 17:56 Mostly Sunny 79 26.1 59 15 50 50 NNE 9 15 29.98 1015 10 16 0.00 0.00
6:56 pm 18:56 Mostly Sunny 77 25 60 15.6 56 56 NNW 10 17 30.02 1017 10 16 0.00 0.00
7:56 pm 19:56 Sunny 73 22.8 62 16.7 68 68 N 10 17 30.03 1017 10 16 0.00 0.00
8:56 pm 20:56 Clear 70 21.1 61 16.1 73 73 NNE 7 11 30.03 1017 10 16 0.00 0.00
9:56 pm 21:56 Clear 66 18.9 64 17.8 93 93 NE 6 9 30.04 1017 10 16 0.00 0.00
10:56 pm 22:56 Clear 62 16.7 N/A N/A Calm 30.04 1017 10 16 0.00 0.00
11:56 pm 23:56 Clear 63 17.2 N/A N/A N 3 6 30.04 1017 10 16 0.00 0.00

Powered by AerisWeather